EW9774 Weather Reports


Display with metric or nautical units.
time (UTC)temp
F
wind
direction
speed
MPH
gust
MPH
rain 1hr
in
rain 24hr
in
rain mn
in
humidity
%
barometer
mb
20260505073143 60 17 1.0 5.0 0.00 0.00 0.00 77 1012.2
20260505071532 59 359 0.0 3.0 0.00 0.00 0.00 76 1012.1
20260505070112 61 23 0.0 3.0 0.00 0.00 0.00 72 1012.0
20260505064528 62 22 2.0 4.0 0.00 0.00 0.00 69 1011.8
20260505063107 64 33 2.0 4.0 0.00 0.00 0.00 68 1011.8
20260505061533 63 360 2.0 5.0 0.00 0.00 0.00 70 1011.8
20260505054531 60 170 0.0 4.0 0.00 0.00 0.00 71 1011.7
20260505053031 61 41 1.0 4.0 0.00 0.00 0.00 68 1011.7
20260505051534 62 79 1.0 3.0 0.00 0.00 0.00 68 1011.6
20260505041535 61 154 0.0 6.0 0.00 0.00 0.00 65 1010.9
20260505040042 63 180 0.0 0.0 0.00 0.00 0.00 62 1010.7
20260505034530 64 201 0.0 3.0 0.00 0.00 0.00 60 1010.5
20260505033029 65 208 2.0 6.0 0.00 0.00 0.00 61 1010.2
20260505031646 67 56 0.0 3.0 0.00 0.00 0.00 61 1010.0
20260505030033 68 163 1.0 5.0 0.00 0.00 0.00 59 1009.7
20260505024531 69 138 1.0 4.0 0.00 0.00 0.00 58 1009.5
20260505023030 72 23 0.0 2.0 0.00 0.00 0.00 54 1009.4
20260505021605 73 29 1.0 4.0 0.00 0.00 0.00 49 1009.4
20260505020030 74 68 1.0 10.0 0.00 0.00 0.00 49 1009.3
20260505014537 75 109 1.0 6.0 0.00 0.00 0.00 48 1009.2
20260505004607 78 184 9.0 20.0 0.00 0.00 0.00 42 1009.2
20260505003107 78 187 8.0 19.0 0.00 0.00 0.00 42 1009.1
20260505001529 78 185 9.0 18.0 0.00 0.00 0.00 41 1009.0
20260505000108 80 184 13.0 20.0 0.00 0.00 0.00 41 1008.9
20260504234607 80 182 8.0 17.0 0.00 0.00 0.00 40 1009.0
20260504233031 81 181 8.0 21.0 0.00 0.00 0.00 40 1008.9
20260504231529 81 183 7.0 21.0 0.00 0.00 0.00 40 1009.0
20260504230032 80 185 9.0 18.0 0.00 0.00 0.00 40 1009.1
20260504223032 81 185 9.0 18.0 0.00 0.00 0.00 41 1009.2
20260504221531 80 184 10.0 23.0 0.00 0.00 0.00 40 1009.3
20260504220031 81 185 10.0 25.0 0.00 0.00 0.00 39 1009.4
20260504214650 82 190 9.0 19.0 0.00 0.00 0.00 38 1009.5
20260504213036 83 184 8.0 18.0 0.00 0.00 0.00 38 1009.7
20260504211608 83 186 7.0 21.0 0.00 0.00 0.00 37 1009.8
20260504204530 83 185 5.0 14.0 0.00 0.00 0.00 37 1010.0
20260504203108 83 191 5.0 11.0 0.00 0.00 0.00 36 1010.3
20260504194649 81 89 4.0 12.0 0.00 0.00 0.00 38 1010.6
20260504193038 80 101 4.0 10.0 0.00 0.00 0.00 39 1010.8
20260504191608 79 168 4.0 11.0 0.00 0.00 0.00 44 1010.9
20260504190031 78 155 3.0 10.0 0.00 0.00 0.00 47 1011.1
20260504184531 77 141 3.0 7.0 0.00 0.00 0.00 49 1011.2
20260504183032 76 130 3.0 9.0 0.00 0.00 0.00 50 1011.3
20260504181530 76 118 3.0 7.0 0.00 0.00 0.00 51 1011.4
20260504180106 75 133 3.0 7.0 0.00 0.00 0.00 52 1011.5
20260504174530 74 122 3.0 7.0 0.00 0.00 0.00 53 1011.5
20260504173030 73 112 3.0 6.0 0.00 0.00 0.00 54 1011.5
20260504170111 71 123 2.0 6.0 0.00 0.00 0.00 56 1011.6
20260504081530 55 180 2.0 3.0 0.00 0.00 0.00 69 1010.9